Cloud_Cover
100 100 100 100 60 94 100 99 5 100 100 100 100 100 99 21 86 19 18 4 0 5 5 5 5 6 18 12 100 95 52 91 99 26 18 5 2 95 3 60 100 98 4 8 2 0 0 0 0
100 95 100 100 100 100 100 93 35 100 100 100 100 100 100 83 32 24 26 68 5 5 5 5 5 0 0 10 100 29 65 89 88 98 63 24 20 95 41 87 97 73 23 0 0 0 0 0 0
100 100 100 100 54 100 100 18 100 46 100 100 100 100 100 18 38 59 58 65 4 1 5 5 4 0 0 0 99 37 82 98 84 16 42 100 20 100 100 0 86 78 4 0 0 0 0 0 0
100 100 100 100 73 100 90 5 7 17 96 100 100 100 100 9 100 85 97 11 10 5 5 5 1 0 0 0 0 0 34 31 99 100 100 89 0 75 96 0 5 9 0 0 0 0 0 0 0
100 100 100 99 100 100 99 61 25 22 98 97 100 100 100 100 60 58 100 80 52 1 3 0 5 4 0 0 5 1 8 100 92 100 100 100 22 99 99 0 0 10 0 0 0 0 0 0 0
100 100 100 100 99 100 53 98 62 100 94 52 100 100 79 92 100 100 100 15 5 15 4 0 20 5 4 0 0 3 5 53 96 95 100 100 39 1 26 8 10 2 0 0 0 0 0 0 0
100 100 100 100 96 100 100 100 72 96 95 98 100 100 100 69 100 100 96 4 8 7 55 0 8 8 36 8 0 0 0 0 0 0 24 97 88 1 0 0 1 1 0 0 0 0 0 0 0
99 86 99 100 89 100 100 100 100 100 100 96 100 100 100 100 100 100 98 90 24 5 6 12 15 12 84 100 20 0 0 0 0 0 0 0 26 0 0 0 0 0 0 0 0 0 0 0 0
100 98 93 100 100 100 100 100 100 100 100 91 100 100 100 91 70 100 100 100 95 54 78 100 17 1 23 100 90 57 0 0 0 0 0 0 0 0 0 3 0 0 0 0 0 3 4 5 98
100 100 100 100 49 97 94 79 100 100 100 92 100 100 100 98 75 100 100 100 100 66 12 100 100 20 12 52 100 77 14 0 0 0 5 0 0 0 5 4 1 0 0 5 7 24 82 60 100
100 99 100 98 70 69 51 57 100 100 100 100 100 100 100 59 100 100 100 97 100 97 59 15 100 100 100 97 24 64 100 0 4 66 48 31 48 1 0 13 40 56 18 11 65 94 100 100 100
100 100 100 94 99 71 46 24 8 100 100 100 100 100 91 75 70 83 98 100 99 82 90 42 86 83 98 100 78 23 100 2 5 49 17 56 32 9 5 27 98 10 54 100 100 100 16 81 11
100 100 100 100 100 46 59 18 57 68 74 100 100 100 98 100 95 100 100 95 23 18 34 39 11 42 77 100 61 37 43 0 15 66 94 5 5 23 6 95 100 14 2 3 5 1 5 9 3
100 100 100 100 100 100 29 55 93 64 32 59 100 100 75 84 100 97 100 100 91 38 7 5 13 5 5 95 92 100 21 59 8 15 16 55 12 50 100 74 100 8 93 100 100 100 100 100 5
100 100 100 89 100 100 79 45 99 100 70 38 91 100 82 99 98 100 100 100 100 97 93 99 44 5 5 100 100 86 5 100 98 100 58 0 0 1 4 0 5 94 100 100 99 100 99 100 100
100 100 100 100 100 73 99 86 100 99 96 7 18 99 25 82 63 100 100 65 100 100 23 13 15 96 6 63 100 100 100 99 100 100 100 50 0 0 0 4 72 22 10 25 97 87 100 94 100
100 100 99 99 100 80 88 100 92 39 89 18 16 6 17 86 89 100 47 87 55 33 5 5 33 37 75 15 90 100 99 100 100 100 100 100 7 41 28 55 3 3 76 5 53 100 100 100 97
100 100 100 100 91 100 99 80 20 11 41 73 98 5 38 89 40 85 6 17 72 41 5 5 5 5 70 66 82 100 94 100 100 100 100 100 81 21 43 62 16 74 5 5 10 5 65 98 93
100 100 100 100 93 100 100 40 27 5 95 12 87 21 5 9 14 14 9 5 6 5 5 5 5 5 25 100 11 67 53 100 100 100 100 72 100 100 100 100 66 47 16 41 100 70 40 98 99
100 100 100 100 100 100 100 95 97 48 5 5 51 53 84 11 5 5 5 8 7 5 5 5 8 68 62 40 81 90 100 99 100 41 37 100 100 100 100 100 100 28 83 100 100 99 100 100 98
98 100 100 100 100 100 100 100 22 100 29 5 22 37 18 96 89 63 20 5 42 75 31 5 33 100 100 84 37 42 86 100 97 73 67 90 100 69 92 100 100 100 97 100 100 100 100 100 98
94 100 100 100 100 100 100 100 100 100 100 89 39 5 5 5 32 29 83 74 100 13 5 5 5 12 99 100 100 83 93 100 74 68 100 100 100 100 100 88 57 71 96 93 40 81 92 83 77
100 100 100 100 100 100 100 100 100 100 100 100 100 43 4 5 86 100 98 86 93 76 94 25 23 54 29 98 94 99 98 82 96 99 100 98 100 100 100 100 100 100 100 100 99 100 100 100 100
100 100 100 100 100 100 100 100 100 100 100 100 100 100 27 7 35 100 100 100 100 98 100 75 38 77 49 75 100 100 80 88 91 94 45 84 90 81 100 76 100 100 86 80 98 99 100 100 99
100 100 100 100 100 93 100 100 100 100 100 100 100 55 37 25 53 100 100 100 100 100 100 97 100 94 100 100 100 34 59 38 6 77 100 97 100 100 97 76 100 100 97 72 67 84 100 100 97
100 100 97 87 59 100 100 100 100 100 100 100 92 70 100 100 99 11 10 70 100 100 100 100 100 100 100 100 100 69 25 11 82 13 5 5 45 90 99 99 70 100 100 76 100 100 99 85 47
100 100 100 85 91 100 100 100 100 100 100 100 100 43 28 12 7 97 55 5 90 48 99 100 100 100 100 100 100 100 100 55 23 10 11 5 41 22 74 79 73 55 97 100 100 100 100 100 100
99 100 100 100 67 14 6 5 100 100 100 100 100 94 18 5 79 86 82 91 100 98 56 62 100 100 98 77 92 100 100 100 100 100 100 98 34 51 39 68 100 55 58 84 100 100 100 100 100
100 100 79 85 58 8 5 9 100 100 100 100 100 100 99 65 67 62 81 22 37 95 99 100 66 50 82 97 14 9 6 6 5 21 74 91 42 25 41 53 100 100 99 100 100 100 100 100 100
100 100 100 100 100 98 62 70 100 100 100 100 100 100 100 100 78 17 6 85 70 91 96 100 100 100 93 78 26 70 84 19 5 12 49 90 100 100 100 100 100 100 100 100 100 100 100 100 100